Weather in Gatchina

Russia / Saint-Petersburg and Leningrad Oblast     59°34′06″N   30°07′28″E
temp.,
°C
wind,
m/s
gust,
m/s
humid.,
%
clouds,
%
prec.,
mm/h
press.,
hPa
HPBL,
m
17 august, wed
wed1700:00+19se227585 0.0 101839
03:00+18sse288038 0.0 1018159
06:00+17sse288599 0.0 1018157
09:00+20s388876 1.1 1018303
12:00+26s4651100 0.1 1018868
15:00+29sse453543 0.1 10181587
18:00+27sse3643100 0.0 1017512
21:00+21s1260100 0.0 101712
18 august, thu
thu1800:00+20se2266100 0.0 101835
03:00+19sse2571100 0.0 101894
06:00+18sse2575100 0.0 1018103
09:00+22sse365853 0.0 1019305
12:00+27sse35455 0.0 1019915
15:00+29sse344014 0.0 10182060
18:00+28se354688 0.0 1019869
21:00+23se265996 0.0 1020143
19 august, fri
fri1900:00+20se2665100 0.0 1021107
03:00+19sse2768100 0.0 1021144
06:00+17se2674100 0.0 1022126
09:00+22se365799 0.0 1023254
12:00+26se4645100 0.0 1023874
15:00+28sse4538100 0.0 10221933
18:00+27sse36405 0.0 10221060
21:00+20sse38620 0.0 1023161
20 august, sat
sat2000:00+18se210744 0.0 1023233
03:00+17se3127675 0.0 1023292
06:00+15se310815 0.0 1023258
09:00+20sse376031 0.0 1024479
12:00+22sse696159 0.0 10231103
15:00+20se5106694 0.0 1023825
18:00+20se3114926 0.0 1022694
21:00+16se276256 0.0 1021147
21 august, sun
sun2100:00+16se3107012 0.0 1020230
03:00+15se310805 0.0 1020259
06:00+14se39850 0.0 1019234
09:00+19se48650 0.0 1019404
12:00+25sse57485 0.0 10181046
15:00+27sse693860 0.0 10171746
18:00+27sse59405 0.0 10161724
21:00+20se310615 0.0 1016188